Showing default

MOLNIYA 1-90, 24960

Orbit data source: Space-Track

MOLNIYA 1-90, 24960 is a payload satellite owned by VKS RVSN (CIS) in HEO that was launched on Wed, 24 Sep 1997 UTC via an MOLNIYA 8K78M launch vehicle from the Plesetsk Missile And Space Complex (PKMTR). Payload-class satellites include a variety of spacecraft equipped with specific instruments for various scientific and technological missions. These include communications satellites like Starlink; space stations such as the ISS; scientific satellites like the Hubble; Earth observation satellites from companies like Planet Labs, Umbra, and HawkEye 360; GPS; miniature CubeSats for education and research; and military/defense satellites.

Loading next visibility...
Identifier
24960, 1997-054A
Orbit
HEO
Country
Flag of CISCIS
Related business
Manufacturer
NPO PM
Mission
Defense Communications
Bus & Motor
MOLNIYA-1T, Unknown motor
Mass
1,670 kg wet, ~1,620 kg dry
Launch date (UTC)
1997-09-24 (29 years ago)
Launch vehicle
MOLNIYA 8K78M
Launch site
Plesetsk Missile And Space Complex (PKMTR)
Object type
Payload
Rocket body
Debris
Shape & HBR
Cyl + Cone + 6 Pan, 4.3 m
Radar Cross Section
15.107 m², Large (>1 m²)

Expand to show TLE details & history
Last TLE update: 1 day ago

TLE from 1 day ago
0 MOLNIYA 1-90
1 24960U 97054A   26093.09020775  .00000087  00000-0  16432-1 0  9998
2 24960  64.3948 218.5193 5903243 281.6345  21.0413  3.18688503252160
Epoch: 2026-04-03T02:09Z
TLE epoch observation values (Epoch: 2026-04-03T02:09:53.949Z)
Latitude
0.00029°
Longitude
-5.40944°
Altitude
4,984.092 km
Speed
7.052 km/s
True Right ascension
14h 33m 58s
True Declination
0° 00' 01"
Sunlit
Object was in full shadow at epoch
Visualization orbit readout
Latitude
Unknown
Longitude
Unknown
Altitude
Unknown
Speed
Unknown
Apparent Right ascension
Unknown
Apparent Declination
Unknown
Sunlit
N/A
Visualization observer readout
Local Sidereal Time
19:51:40
Azimuth
Unknown
Elevation
Unknown
Doppler factor
Unknown
Orbital elements
Apogee altitude
24,640.487 km
Perigee altitude
1,612.42 km
Semi-major axis
19,504.59 km
Eccentricity
0.59032
Inclination
64.3948°
RAAN
218.5193°
Arg. of periapsis
281.6345°
True anomaly
78.33588°
Mean anomaly
21.0413°
Eccentric anomaly
44.92759°
Mean motion
0.79678 °/min
Orbital period
451.82 mins
BSTAR
0.016432
Loading maneuver chart data...
Computing Atmospheric mass density...
Loading historical data...
Loading historical data...
Loading historical data...
Loading historical data...
Loading historical data...
Loading historical data...
Loading historical data...
Other satellites on launch #54 in the year 1997 (1997-09-24 UTC)

Documentation

Showing up to 5 results
|